Temp
-4 -5 -5 -4 -4 -4 -4 -5 -5 -4 -4 -4 -4 -5 -5 -5 -5 -5 -5 -5 -5 -6 -6 -6 -6 -6 -7 -7 -7 -7 -8 -8 -8 -8 -8 -8 -8 -8 -8 -8 -8 -8 -8 -8 -8 -8 -8 -8 -7
-4 -4 -5 -3 -4 -5 -5 -4 -4 -4 -4 -4 -4 -4 -5 -5 -5 -5 -5 -6 -6 -6 -6 -6 -6 -6 -7 -7 -7 -7 -8 -8 -8 -8 -7 -8 -8 -8 -8 -8 -8 -8 -8 -8 -8 -8 -8 -8 -8
-3 -4 -4 -5 -5 -4 -5 -4 -4 -4 -4 -4 -4 -4 -5 -5 -5 -5 -5 -5 -6 -6 -6 -6 -6 -6 -7 -7 -7 -7 -7 -8 -7 -7 -7 -8 -8 -8 -8 -8 -8 -8 -8 -8 -8 -8 -8 -8 -8
-4 -5 -5 -6 -5 -5 -5 -5 -4 -4 -4 -4 -4 -5 -5 -5 -5 -5 -5 -5 -6 -6 -6 -6 -6 -6 -7 -7 -7 -7 -7 -7 -7 -7 -7 -7 -8 -7 -7 -8 -8 -8 -8 -8 -8 -8 -8 -8 -8
-4 -5 -5 -5 -5 -5 -5 -5 -4 -4 -4 -4 -4 -5 -5 -5 -5 -5 -5 -6 -6 -6 -6 -6 -6 -6 -7 -7 -7 -7 -7 -7 -7 -7 -7 -8 -8 -7 -8 -8 -8 -7 -7 -7 -7 -7 -7 -8 -8
-4 -5 -4 -5 -5 -6 -5 -5 -4 -4 -4 -4 -5 -5 -5 -6 -6 -5 -5 -5 -6 -6 -6 -6 -6 -7 -7 -7 -7 -7 -7 -7 -7 -7 -7 -8 -8 -8 -8 -8 -8 -7 -7 -7 -7 -7 -7 -7 -8
-4 -5 -5 -5 -5 -5 -5 -5 -4 -5 -5 -5 -4 -5 -5 -6 -6 -6 -5 -6 -6 -6 -5 -6 -6 -7 -7 -7 -7 -7 -7 -7 -7 -8 -7 -7 -7 -7 -8 -8 -7 -8 -7 -7 -7 -7 -7 -7 -7
-5 -5 -5 -5 -5 -5 -5 -5 -5 -5 -5 -5 -4 -5 -6 -6 -6 -6 -5 -5 -6 -6 -6 -6 -6 -7 -7 -7 -7 -7 -7 -7 -7 -7 -7 -7 -7 -7 -7 -8 -8 -8 -7 -7 -7 -7 -8 -7 -7
-5 -5 -5 -5 -5 -5 -5 -6 -5 -5 -5 -5 -5 -6 -6 -5 -7 -7 -6 -6 -6 -6 -6 -6 -6 -7 -7 -7 -7 -7 -7 -7 -7 -7 -7 -7 -7 -7 -7 -8 -7 -8 -8 -8 -7 -8 -7 -7 -7
-5 -5 -5 -5 -6 -6 -5 -5 -6 -5 -5 -5 -6 -5 -6 -5 -6 -6 -6 -6 -6 -6 -6 -6 -6 -6 -7 -7 -6 -7 -7 -7 -7 -7 -7 -7 -7 -7 -7 -8 -8 -8 -8 -8 -7 -7 -7 -7 -7
-5 -6 -5 -5 -7 -6 -5 -5 -5 -6 -5 -5 -5 -5 -6 -6 -5 -6 -6 -5 -6 -6 -6 -7 -6 -6 -6 -6 -6 -7 -7 -7 -7 -7 -7 -7 -7 -7 -7 -8 -7 -8 -7 -8 -8 -7 -8 -8 -7
-5 -5 -5 -5 -5 -6 -5 -5 -5 -5 -5 -4 -5 -5 -6 -6 -6 -6 -6 -6 -6 -6 -6 -6 -7 -6 -6 -6 -6 -6 -7 -7 -7 -7 -7 -7 -7 -7 -7 -8 -8 -8 -8 -8 -8 -8 -7 -7 -7
-6 -5 -6 -5 -6 -6 -5 -4 -4 -5 -4 -4 -5 -5 -6 -5 -6 -6 -6 -6 -6 -6 -6 -6 -6 -6 -6 -6 -6 -7 -7 -7 -7 -7 -8 -8 -7 -7 -7 -7 -8 -8 -8 -8 -8 -7 -7 -7 -7
-7 -6 -6 -5 -5 -5 -5 -4 -4 -5 -5 -5 -5 -5 -6 -6 -6 -7 -7 -7 -7 -6 -6 -6 -6 -6 -6 -6 -6 -7 -7 -7 -7 -7 -7 -7 -7 -7 -7 -7 -7 -7 -8 -8 -7 -7 -7 -6 -6
-7 -6 -6 -5 -5 -4 -5 -5 -5 -5 -5 -5 -5 -6 -6 -6 -7 -7 -7 -7 -7 -7 -7 -6 -6 -6 -6 -6 -6 -6 -7 -7 -7 -7 -7 -8 -7 -6 -7 -7 -7 -7 -7 -7 -7 -7 -6 -6 -7
-6 -5 -5 -6 -5 -4 -6 -5 -5 -5 -5 -5 -5 -6 -6 -7 -6 -7 -7 -7 -7 -6 -6 -6 -6 -6 -6 -6 -6 -6 -7 -7 -7 -7 -7 -7 -7 -7 -7 -7 -7 -7 -7 -7 -7 -6 -6 -6 -6
-5 -5 -5 -5 -5 -5 -5 -6 -5 -6 -6 -5 -6 -6 -6 -6 -6 -6 -7 -7 -7 -7 -6 -6 -6 -6 -6 -6 -6 -6 -6 -6 -7 -6 -7 -8 -7 -7 -7 -7 -7 -7 -7 -6 -6 -7 -6 -6 -6
-4 -5 -5 -5 -5 -5 -5 -6 -6 -5 -5 -6 -6 -7 -6 -6 -6 -6 -6 -7 -7 -6 -6 -6 -6 -6 -6 -6 -6 -6 -6 -6 -7 -6 -6 -7 -7 -7 -6 -6 -6 -6 -6 -6 -6 -6 -6 -6 -6
-5 -5 -5 -6 -6 -6 -6 -7 -7 -6 -4 -5 -6 -7 -7 -6 -6 -5 -6 -6 -6 -6 -6 -6 -6 -6 -6 -6 -6 -6 -6 -6 -6 -6 -6 -6 -7 -7 -6 -6 -6 -6 -6 -6 -6 -6 -6 -6 -6
-6 -6 -6 -7 -7 -6 -7 -7 -7 -6 -5 -6 -6 -7 -7 -6 -6 -6 -6 -6 -5 -6 -6 -6 -6 -6 -6 -6 -6 -6 -6 -6 -6 -6 -6 -7 -6 -6 -6 -6 -6 -6 -6 -6 -6 -6 -6 -6 -6
-6 -6 -6 -7 -8 -7 -7 -6 -7 -6 -5 -4 -5 -6 -7 -6 -6 -6 -6 -6 -6 -5 -6 -6 -6 -6 -6 -6 -6 -6 -6 -6 -6 -6 -6 -6 -7 -6 -6 -6 -6 -5 -6 -6 -6 -6 -6 -6 -6
-6 -6 -7 -8 -8 -7 -7 -5 -6 -6 -6 -5 -6 -5 -6 -7 -6 -6 -6 -5 -6 -5 -6 -6 -6 -6 -5 -5 -6 -6 -6 -7 -6 -6 -6 -6 -6 -6 -6 -6 -5 -6 -6 -6 -6 -6 -6 -7 -6
-7 -7 -7 -8 -9 -9 -8 -7 -6 -6 -5 -5 -6 -6 -6 -7 -7 -6 -6 -6 -6 -5 -5 -6 -6 -5 -5 -6 -6 -6 -6 -5 -6 -6 -6 -6 -6 -6 -6 -6 -6 -6 -6 -6 -6 -6 -6 -6 -6
-8 -8 -8 -8 -9 -9 -8 -7 -4 -4 -4 -6 -6 -7 -7 -6 -7 -7 -6 -6 -5 -5 -5 -5 -6 -6 -5 -6 -6 -6 -5 -6 -6 -6 -6 -6 -6 -6 -6 -6 -6 -6 -6 -6 -6 -6 -6 -6 -6
-8 -8 -9 -9 -9 -5 -7 -8 -3 -4 -5 -6 -6 -7 -7 -7 -7 -7 -6 -6 -6 -5 -5 -5 -5 -6 -5 -5 -5 -5 -5 -6 -5 -5 -5 -5 -6 -6 -6 -6 -6 -6 -6 -6 -6 -6 -7 -6 -7
-8 -8 -8 -7 -6 -5 -7 -5 -1 -4 -6 -7 -7 -7 -7 -8 -7 -7 -7 -7 -6 -6 -5 -5 -5 -6 -6 -5 -6 -5 -5 -5 -5 -5 -5 -5 -6 -6 -6 -6 -6 -6 -6 -6 -6 -7 -7 -7 -7
-9 -8 -8 -8 -7 -6 -6 -6 -3 -4 -6 -7 -7 -7 -7 -7 -8 -7 -7 -7 -6 -6 -5 -5 -5 -5 -6 -6 -6 -5 -6 -6 -6 -6 -5 -5 -6 -6 -6 -6 -6 -6 -6 -6 -6 -7 -7 -7 -8
-9 -9 -9 -8 -7 -6 -6 -6 -3 -3 -5 -7 -7 -7 -7 -8 -8 -8 -7 -6 -6 -6 -5 -5 -5 -5 -6 -6 -6 -6 -6 -6 -6 -5 -5 -6 -5 -6 -6 -6 -6 -6 -6 -6 -6 -7 -7 -7 -8
-11 -10 -9 -9 -8 -6 -5 -5 -5 -4 -5 -7 -7 -7 -7 -7 -8 -8 -8 -7 -6 -6 -5 -5 -5 -5 -5 -6 -6 -6 -6 -5 -5 -5 -5 -5 -5 -5 -5 -5 -5 -6 -6 -6 -6 -6 -7 -7 -8
-13 -10 -9 -8 -7 -6 -6 -5 -5 -6 -6 -7 -8 -8 -8 -7 -8 -8 -8 -8 -6 -6 -6 -5 -5 -5 -5 -5 -5 -5 -5 -5 -5 -5 -5 -5 -5 -5 -5 -5 -6 -6 -6 -6 -6 -7 -7 -7 -7
Height
5874 5875 5876 5879 5881 5880 5881 5883 5882 5883 5884 5883 5884 5884 5884 5884 5886 5890 5889 5890 5891 5892 5892 5893 5894 5896 5896 5897 5898 5898 5900 5902 5904 5905 5905 5905 5905 5905 5905 5905 5904 5903 5903 5902 5901 5902 5902 5903 5904
5874 5875 5878 5879 5877 5880 5881 5883 5884 5885 5886 5885 5885 5884 5884 5886 5888 5889 5890 5891 5892 5892 5893 5894 5896 5897 5898 5899 5900 5901 5903 5904 5906 5907 5907 5907 5908 5907 5907 5907 5906 5905 5904 5903 5902 5901 5902 5904 5904
5875 5876 5878 5881 5881 5881 5884 5884 5885 5885 5886 5886 5886 5885 5884 5886 5889 5890 5891 5892 5893 5894 5895 5896 5898 5899 5900 5901 5901 5903 5905 5906 5908 5908 5908 5909 5909 5909 5908 5908 5908 5908 5907 5906 5904 5902 5902 5904 5905
5876 5877 5880 5882 5883 5884 5884 5885 5886 5887 5886 5887 5886 5886 5886 5888 5890 5891 5892 5894 5894 5895 5897 5898 5899 5900 5902 5902 5902 5903 5905 5907 5908 5909 5910 5909 5910 5909 5909 5910 5910 5910 5909 5908 5906 5904 5903 5905 5906
5876 5877 5879 5881 5882 5884 5885 5886 5888 5888 5887 5887 5887 5887 5887 5889 5890 5892 5892 5894 5894 5895 5898 5900 5901 5901 5902 5902 5903 5905 5906 5908 5910 5910 5911 5911 5911 5911 5912 5912 5912 5911 5911 5910 5909 5908 5908 5908 5909
5876 5877 5880 5881 5881 5883 5885 5886 5886 5887 5887 5888 5887 5887 5888 5890 5891 5893 5893 5895 5895 5897 5899 5901 5902 5903 5903 5904 5904 5906 5908 5910 5911 5912 5912 5912 5913 5914 5914 5914 5915 5915 5914 5914 5913 5913 5912 5912 5912
5876 5878 5879 5879 5881 5883 5885 5886 5886 5885 5887 5887 5887 5887 5888 5890 5892 5894 5895 5895 5897 5899 5901 5902 5903 5904 5905 5906 5906 5908 5910 5912 5913 5914 5913 5914 5915 5916 5916 5917 5917 5917 5917 5917 5917 5916 5915 5916 5916
5875 5877 5879 5879 5880 5882 5883 5883 5883 5884 5885 5886 5887 5888 5888 5890 5892 5895 5896 5897 5898 5901 5902 5903 5904 5906 5907 5907 5909 5910 5912 5914 5915 5915 5915 5917 5917 5918 5918 5918 5919 5921 5920 5920 5920 5919 5919 5919 5918
5874 5877 5877 5878 5879 5881 5881 5882 5883 5883 5884 5885 5887 5888 5889 5890 5891 5894 5897 5898 5900 5902 5904 5905 5906 5907 5908 5910 5911 5913 5915 5916 5917 5918 5918 5920 5921 5921 5922 5922 5921 5923 5923 5923 5922 5922 5921 5921 5920
5873 5875 5877 5878 5877 5879 5879 5880 5882 5883 5883 5885 5886 5887 5888 5892 5892 5893 5897 5898 5901 5903 5905 5907 5907 5908 5910 5912 5914 5915 5917 5919 5919 5920 5921 5922 5923 5924 5923 5924 5923 5924 5924 5925 5924 5924 5923 5923 5921
5872 5872 5876 5876 5876 5877 5879 5879 5880 5881 5882 5884 5886 5887 5887 5892 5893 5893 5897 5898 5900 5903 5905 5908 5908 5909 5911 5914 5916 5917 5919 5921 5922 5922 5924 5925 5926 5926 5926 5926 5926 5926 5926 5925 5926 5925 5924 5924 5923
5869 5869 5871 5875 5875 5877 5879 5880 5880 5880 5882 5883 5884 5887 5890 5889 5893 5894 5896 5899 5900 5903 5906 5908 5909 5910 5913 5915 5918 5920 5922 5924 5924 5925 5926 5928 5928 5929 5928 5927 5927 5928 5927 5927 5926 5926 5925 5925 5924
5867 5866 5865 5872 5874 5875 5879 5879 5879 5882 5882 5882 5884 5886 5889 5889 5891 5894 5897 5899 5901 5903 5906 5909 5910 5911 5914 5916 5919 5922 5924 5926 5926 5927 5928 5929 5930 5930 5930 5929 5929 5928 5928 5928 5928 5928 5927 5927 5926
5861 5861 5861 5866 5873 5874 5877 5879 5879 5881 5881 5881 5884 5886 5888 5889 5890 5893 5896 5898 5901 5903 5906 5908 5910 5912 5914 5918 5920 5923 5925 5927 5927 5928 5930 5931 5932 5932 5932 5931 5931 5931 5930 5931 5932 5929 5928 5927 5925
5854 5858 5859 5863 5869 5872 5876 5878 5878 5878 5879 5880 5883 5886 5887 5889 5892 5893 5894 5897 5900 5902 5905 5908 5909 5912 5915 5919 5921 5923 5926 5928 5929 5930 5931 5931 5932 5934 5934 5932 5933 5933 5933 5933 5932 5931 5930 5928 5925
5849 5852 5856 5860 5866 5869 5875 5877 5876 5878 5879 5881 5883 5883 5885 5887 5889 5892 5893 5896 5899 5903 5905 5907 5910 5912 5916 5920 5922 5924 5926 5929 5930 5931 5931 5933 5934 5936 5935 5935 5935 5935 5935 5935 5935 5933 5931 5929 5929
5841 5845 5856 5856 5862 5865 5870 5874 5876 5877 5879 5880 5881 5883 5885 5886 5888 5891 5892 5894 5897 5900 5905 5907 5910 5912 5916 5921 5923 5926 5927 5930 5931 5932 5933 5935 5936 5937 5936 5936 5937 5937 5937 5936 5936 5935 5934 5934 5933
5840 5847 5852 5853 5857 5862 5866 5870 5873 5874 5876 5878 5879 5882 5884 5885 5886 5887 5890 5891 5894 5899 5903 5906 5909 5912 5916 5920 5924 5927 5929 5931 5933 5934 5935 5936 5938 5938 5939 5939 5939 5939 5939 5939 5939 5938 5939 5938 5935
5835 5841 5846 5850 5853 5856 5862 5865 5871 5872 5873 5875 5876 5878 5881 5883 5883 5885 5888 5889 5892 5897 5902 5905 5910 5913 5916 5920 5924 5927 5929 5931 5933 5935 5937 5938 5939 5940 5940 5941 5941 5940 5941 5942 5942 5942 5942 5941 5940
5826 5831 5838 5845 5846 5849 5856 5862 5862 5868 5870 5869 5872 5875 5877 5880 5881 5883 5884 5887 5892 5895 5900 5904 5909 5913 5915 5918 5922 5926 5928 5931 5933 5934 5937 5939 5940 5940 5941 5942 5943 5943 5943 5943 5943 5943 5943 5943 5943
5819 5824 5832 5840 5841 5842 5848 5850 5853 5863 5865 5866 5868 5870 5873 5876 5879 5881 5882 5882 5886 5893 5899 5903 5907 5912 5915 5917 5922 5926 5929 5932 5933 5934 5937 5939 5941 5942 5942 5943 5943 5944 5945 5945 5945 5944 5945 5945 5945
5813 5824 5824 5828 5830 5832 5839 5841 5849 5856 5862 5865 5867 5868 5869 5873 5876 5878 5879 5881 5884 5889 5895 5899 5904 5909 5914 5917 5921 5925 5926 5928 5931 5933 5937 5940 5942 5943 5943 5943 5944 5945 5946 5946 5946 5946 5946 5946 5946
5813 5810 5816 5819 5821 5824 5826 5830 5842 5847 5852 5860 5864 5866 5866 5869 5872 5875 5876 5877 5880 5883 5891 5896 5901 5907 5913 5917 5920 5922 5925 5928 5932 5934 5937 5940 5942 5943 5943 5944 5945 5946 5946 5947 5947 5947 5946 5946 5947
5799 5800 5803 5805 5807 5802 5816 5818 5831 5840 5850 5858 5861 5862 5863 5866 5868 5871 5872 5876 5879 5881 5886 5893 5898 5904 5910 5914 5918 5921 5926 5928 5930 5933 5936 5938 5940 5942 5943 5944 5944 5946 5947 5948 5948 5947 5946 5946 5947
5781 5786 5790 5792 5787 5788 5809 5807 5822 5837 5846 5854 5857 5860 5863 5864 5866 5866 5868 5873 5877 5882 5886 5891 5896 5901 5907 5912 5915 5920 5924 5927 5928 5931 5934 5936 5939 5941 5942 5943 5944 5945 5947 5948 5948 5948 5948 5948 5947
5769 5775 5779 5780 5781 5789 5800 5790 5812 5832 5840 5847 5852 5855 5854 5857 5860 5863 5865 5868 5872 5877 5883 5888 5894 5899 5904 5909 5913 5918 5922 5925 5927 5929 5932 5934 5937 5939 5941 5943 5944 5945 5946 5948 5949 5948 5948 5948 5947
5757 5759 5775 5777 5781 5787 5786 5793 5815 5822 5831 5840 5847 5850 5852 5856 5857 5859 5862 5866 5871 5875 5880 5884 5890 5896 5902 5907 5911 5916 5920 5924 5926 5927 5930 5932 5934 5937 5940 5942 5943 5944 5946 5947 5948 5947 5947 5947 5947
5748 5755 5759 5763 5768 5773 5777 5786 5804 5815 5826 5835 5839 5846 5850 5854 5856 5855 5859 5863 5869 5872 5877 5880 5883 5890 5899 5904 5908 5913 5917 5921 5924 5926 5928 5930 5931 5935 5938 5941 5941 5942 5944 5945 5946 5946 5947 5947 5947
5734 5738 5748 5756 5762 5768 5772 5780 5801 5811 5821 5827 5835 5843 5847 5852 5854 5856 5858 5860 5864 5868 5873 5880 5883 5886 5892 5900 5905 5910 5915 5919 5922 5924 5926 5928 5930 5933 5935 5938 5939 5940 5942 5943 5944 5945 5946 5947 5947
5717 5730 5737 5743 5751 5756 5764 5776 5794 5804 5815 5822 5829 5838 5844 5849 5852 5855 5857 5858 5860 5865 5870 5877 5881 5885 5891 5897 5901 5906 5910 5915 5919 5921 5924 5926 5928 5930 5933 5935 5936 5938 5939 5940 5942 5943 5944 5945 5946
Wind_Speed
6 6 5 7 7 14 8 9 8 7 8 11 9 8 3 4 18 12 8 5 5 3 5 7 8 8 10 10 10 10 11 13 13 12 13 13 13 13 11 11 9 8 6 5 4 3 5 6 7
8 8 5 6 2 12 8 7 8 7 10 10 9 8 6 11 17 13 8 4 3 4 4 8 8 9 10 10 10 10 11 12 13 12 12 12 12 11 10 10 9 8 9 9 7 1 5 7 6
9 9 5 4 7 13 5 6 10 14 13 11 11 10 10 18 15 13 9 6 3 4 4 9 8 9 10 11 11 11 12 12 12 12 12 11 10 10 11 11 12 11 11 9 9 7 6 9 7
8 7 4 4 5 4 4 7 10 12 13 11 11 10 14 20 12 11 8 5 4 4 5 8 8 10 11 12 12 12 13 13 12 11 10 11 12 12 13 14 13 14 13 13 12 11 10 10 7
9 7 6 5 10 6 8 8 11 10 11 9 9 9 15 16 10 9 7 6 5 6 8 7 8 11 12 12 12 12 13 14 14 13 13 13 15 15 15 14 14 14 13 15 15 17 14 13 12
9 9 5 4 9 7 8 11 13 9 6 8 7 7 11 14 10 4 5 5 5 7 10 8 10 11 12 12 12 13 12 14 14 14 15 16 16 15 15 16 16 16 15 16 17 18 16 15 14
10 8 6 9 7 11 9 10 9 11 7 7 7 9 11 13 9 7 5 5 6 7 10 10 11 12 13 12 12 12 12 13 13 15 16 16 15 16 17 17 16 16 16 14 14 16 15 15 14
10 9 5 4 12 13 16 9 10 10 10 8 9 11 14 14 9 6 4 4 6 8 10 11 13 13 13 12 12 12 12 14 16 17 17 16 16 15 17 15 13 14 13 13 13 11 11 13 12
10 10 6 4 5 10 18 13 11 12 11 10 11 10 8 15 13 7 3 5 6 8 10 11 13 13 14 13 12 14 15 17 18 17 17 17 16 15 15 14 13 11 11 10 9 9 8 9 9
10 13 11 8 9 10 16 18 11 7 10 10 13 12 14 11 14 11 7 7 7 9 9 10 13 13 14 14 13 16 17 18 19 19 17 16 16 14 14 13 11 11 10 11 10 10 9 8 8
15 16 14 12 14 10 15 12 7 9 8 11 11 10 17 10 11 12 7 5 7 11 10 11 13 13 13 15 16 18 18 17 17 18 17 15 13 14 14 13 12 12 11 10 9 8 8 7 9
19 19 19 14 13 11 16 12 14 12 10 10 9 10 14 18 13 12 9 7 8 11 12 12 14 13 13 16 18 19 15 16 16 16 15 11 13 13 14 14 13 11 10 9 10 11 12 12 7
20 22 22 17 20 17 16 20 18 8 7 9 9 12 15 16 17 13 10 6 7 11 13 14 16 15 14 18 20 17 17 17 18 15 14 13 13 11 12 13 11 10 10 11 13 13 14 11 10
26 29 28 23 18 19 13 19 16 10 11 8 5 9 15 17 17 15 12 8 8 12 13 15 17 16 16 20 23 17 16 15 15 13 14 13 12 11 10 11 11 10 12 12 13 15 15 15 10
32 31 31 25 19 18 10 20 14 11 7 7 9 9 8 11 16 18 17 14 11 15 15 16 18 18 17 22 24 19 18 15 14 13 13 11 11 11 7 10 10 12 10 11 13 14 16 16 14
35 35 32 29 24 21 14 14 13 9 10 8 8 10 11 11 15 19 17 14 11 13 17 18 19 19 19 22 22 19 19 16 15 14 14 11 11 7 9 9 11 13 11 11 14 16 17 16 15
42 38 27 30 27 24 20 15 17 10 10 11 9 6 9 7 9 13 16 17 16 17 17 20 21 20 21 20 19 17 20 17 14 14 13 12 9 6 10 10 13 14 15 15 15 17 20 16 14
34 32 30 32 30 27 24 19 20 19 18 18 12 8 10 5 6 10 17 19 19 21 20 22 23 23 23 22 18 17 17 18 16 13 12 12 9 7 10 13 13 14 14 15 14 17 17 19 16
34 35 34 34 33 31 26 23 24 24 24 21 14 12 15 9 5 6 14 17 22 24 23 22 22 23 23 23 19 19 18 16 15 15 13 11 9 8 12 13 13 14 12 11 12 14 15 18 17
37 36 37 36 39 38 34 27 30 28 28 26 21 20 14 13 10 11 13 14 17 25 27 25 23 23 26 25 24 22 20 18 14 13 12 10 9 10 11 11 12 13 11 9 10 11 13 16 16
38 36 34 33 41 42 38 39 39 28 33 31 24 21 15 14 14 14 14 18 21 25 26 26 24 25 26 27 24 21 18 16 13 12 11 9 8 9 10 10 10 10 11 10 8 10 11 13 14
40 28 33 38 42 45 41 42 37 31 28 32 24 22 18 15 15 15 15 18 21 25 29 28 27 26 28 26 24 24 24 20 16 14 13 10 10 9 9 9 8 8 8 6 6 8 8 10 11
31 35 34 38 44 46 47 47 37 36 33 27 28 23 19 18 10 13 16 21 24 27 31 29 29 27 28 26 26 26 24 18 16 16 14 13 11 10 9 8 7 7 6 4 4 7 7 7 8
38 40 39 41 48 58 50 51 41 36 31 27 29 23 21 18 13 13 16 21 22 28 32 31 30 28 26 27 28 27 24 22 20 19 16 13 12 11 9 7 5 5 5 5 5 6 6 5 6
48 48 47 48 58 60 50 55 38 34 31 31 29 28 22 18 14 13 17 18 18 23 29 29 28 28 26 27 29 28 25 23 21 19 16 13 13 11 9 7 4 2 4 7 9 10 5 4 4
54 54 55 58 58 55 52 60 35 32 33 32 32 32 32 28 22 19 17 19 22 25 27 28 26 27 27 26 28 29 25 23 22 20 18 16 14 12 9 6 4 2 2 4 6 9 11 6 4
59 61 54 56 56 53 57 55 33 35 35 42 33 34 34 29 24 21 20 21 22 25 28 30 26 25 28 27 29 28 24 22 21 20 19 19 17 15 11 8 5 3 3 5 4 6 8 9 6
62 61 57 59 60 59 58 54 39 34 33 41 39 39 35 28 26 27 24 23 25 26 29 32 32 29 29 31 30 28 26 24 22 20 19 18 18 15 12 9 8 7 6 7 6 4 5 7 7
64 68 62 56 58 58 57 53 40 35 31 40 41 40 38 32 27 27 25 24 27 28 30 30 29 32 34 34 33 29 27 24 20 19 19 17 15 12 12 11 11 10 10 9 8 6 5 5 6
69 65 67 65 62 60 57 52 38 36 33 37 40 38 36 31 31 28 26 24 27 27 30 30 29 26 31 33 34 32 29 25 21 19 19 17 15 12 11 11 12 12 11 11 9 8 6 6 5
Wind_Direction
151 128 107 136 168 133 163 150 111 107 120 112 100 97 90 127 145 132 120 104 118 97 90 85 91 99 99 98 103 109 119 126 125 115 107 105 103 100 95 80 71 63 56 45 36 80 108 108 107
154 145 137 127 74 144 149 115 109 105 129 118 108 78 94 136 131 129 118 106 60 60 79 93 96 100 103 105 108 115 119 128 124 118 110 105 101 96 89 84 72 65 62 49 39 57 171 129 108
171 170 183 163 68 127 132 116 130 121 122 102 89 76 106 140 136 119 118 116 94 55 84 100 106 108 112 111 108 112 121 132 122 113 106 103 94 84 80 72 72 63 55 59 53 60 143 149 125
188 193 196 184 165 151 142 141 153 142 129 114 103 107 131 148 136 119 119 118 112 90 101 104 114 111 112 107 107 106 110 117 111 107 105 100 89 78 70 69 67 69 61 59 57 72 97 130 119
210 202 203 257 147 144 167 164 160 150 122 110 108 116 152 158 149 123 136 132 129 113 120 111 113 110 107 103 104 107 105 104 103 103 102 95 88 82 76 73 69 67 70 74 70 75 90 104 109
225 220 219 223 171 175 176 164 152 131 127 154 125 112 147 168 167 160 144 129 129 131 130 124 119 112 108 107 109 111 107 105 107 109 109 103 97 92 84 78 76 77 78 79 79 85 91 95 98
222 209 227 241 238 194 173 181 159 157 172 167 155 136 145 167 171 167 146 135 128 142 138 134 129 119 117 117 111 114 114 115 115 115 111 105 104 99 91 84 80 80 81 84 85 88 95 97 97
218 213 202 208 182 186 184 185 208 190 185 188 174 151 151 159 161 154 117 119 129 144 141 140 134 127 126 123 119 118 120 119 119 117 110 107 106 101 98 94 85 82 84 87 85 87 88 86 85
216 205 227 265 234 241 215 197 199 186 189 184 172 155 150 156 147 139 110 107 120 136 143 146 140 136 133 129 124 118 119 120 116 111 105 102 102 102 96 91 85 79 77 77 76 71 70 72 78
224 215 220 242 237 207 190 200 207 208 193 186 175 154 129 168 147 137 145 134 138 142 148 155 147 145 140 137 130 127 126 117 114 110 109 107 106 103 96 86 78 70 67 69 67 68 59 57 65
227 223 216 228 202 197 200 197 188 204 212 179 185 174 143 165 151 138 144 130 146 149 151 161 154 152 145 141 140 134 127 123 115 116 114 109 103 95 92 84 81 73 69 66 66 49 47 45 57
218 229 221 208 198 208 211 228 233 211 209 187 188 177 164 150 166 151 148 140 146 159 155 161 160 155 151 144 141 141 128 121 123 120 113 114 92 85 90 89 80 72 51 54 51 59 56 54 59
225 230 230 218 211 232 234 232 222 189 190 185 180 180 174 175 168 159 150 144 139 158 162 164 163 163 160 154 146 142 138 122 126 112 108 117 97 89 87 86 73 57 57 76 74 57 43 48 52
217 221 224 223 218 217 235 219 192 153 126 110 162 184 185 181 174 162 164 164 163 161 162 169 168 166 167 158 150 141 143 139 134 119 111 105 103 92 74 68 69 70 75 73 65 49 42 38 39
216 219 227 235 227 225 236 197 173 165 152 119 154 158 176 195 185 184 181 178 174 170 166 172 169 169 168 165 159 146 146 139 136 126 115 111 103 88 84 68 69 84 92 72 58 49 51 42 60
217 223 219 225 228 222 198 209 200 192 178 158 149 146 154 180 196 195 194 179 178 174 173 172 173 170 166 171 164 157 151 144 138 130 127 123 111 93 85 75 71 85 84 78 70 64 48 55 67
221 224 221 228 224 225 220 216 209 218 214 175 151 161 158 195 210 203 199 183 179 180 176 174 177 170 168 174 172 168 150 149 141 137 135 122 110 88 78 76 81 82 84 79 69 65 53 64 80
233 229 224 230 231 227 222 229 222 216 199 189 187 220 200 167 214 210 205 189 182 181 177 178 177 172 170 172 168 166 153 151 146 146 139 130 117 95 89 88 84 81 83 82 78 71 61 59 70
237 232 230 224 231 232 231 228 214 221 218 195 214 191 197 217 204 210 216 198 187 180 178 178 178 177 172 171 172 168 162 157 153 150 149 141 120 97 88 85 83 80 82 86 83 81 67 59 67
229 229 229 225 226 228 227 221 229 222 224 199 196 184 205 218 209 214 208 198 196 184 182 180 179 179 177 175 177 174 169 166 161 154 153 141 115 97 81 88 88 86 89 89 83 79 72 65 74
224 224 224 227 228 233 224 222 225 222 218 228 206 189 210 209 200 213 213 189 194 184 186 183 186 188 185 179 181 178 169 166 164 162 157 144 128 114 97 87 90 89 93 84 68 72 69 68 67
228 227 222 220 226 233 230 226 223 219 225 222 213 211 197 175 206 210 204 195 192 181 191 187 187 190 192 186 182 176 173 175 178 171 163 159 149 136 115 98 91 85 86 79 72 71 72 70 66
220 225 221 222 226 230 228 230 213 212 210 206 209 206 193 174 190 208 188 190 198 185 189 191 191 193 197 190 184 186 186 178 181 178 172 167 162 149 132 117 101 82 68 46 50 44 56 62 66
215 219 217 216 220 226 225 233 210 207 203 197 193 197 188 178 194 201 195 196 203 191 189 192 193 196 196 192 191 192 192 183 185 180 179 172 168 159 146 134 109 87 70 39 31 35 32 37 47
215 215 216 216 219 225 221 232 217 200 194 185 198 202 195 190 201 200 201 195 205 204 191 192 194 195 195 193 192 195 194 196 191 184 179 174 175 170 167 155 140 104 59 47 34 36 42 47 51
217 217 221 220 222 226 221 228 219 188 192 196 193 196 198 194 188 207 191 193 187 194 194 189 194 199 197 199 196 195 196 204 192 182 178 177 176 179 187 186 190 221 342 8 9 19 34 36 47
215 216 219 226 230 231 232 233 223 197 192 185 190 200 202 198 190 198 187 189 194 195 196 182 185 198 200 200 199 195 197 209 195 187 181 177 177 187 194 205 222 242 282 295 332 4 16 22 19
215 219 216 220 224 228 233 232 225 211 191 192 200 205 200 198 201 193 186 190 192 196 197 190 179 186 199 202 200 197 196 202 200 190 185 185 187 186 189 204 225 242 259 280 302 321 337 355 5
214 215 215 221 230 230 233 231 223 216 192 192 199 209 202 203 207 199 188 194 190 194 197 197 189 187 194 201 200 198 201 202 201 194 190 188 185 192 206 220 237 245 254 266 274 285 299 318 329
216 212 216 220 222 225 229 230 222 218 203 196 193 206 201 205 208 201 198 200 196 191 196 196 195 195 198 201 199 197 198 197 196 196 189 180 190 210 229 239 242 242 249 254 261 264 272 280 293